Location: Cairo Bend
(36.2389°N, 86.4003°W)
Time: 01:28:55
(UTC+00:00)

Daily predictions for brighter satellites

Satellite Brightness Start Highest point End
(mag) Time Altitude Azimuth Time Altitude Azimuth Time Altitude Azimuth
USA 305 4.1 01:18:09 10° NNW 01:21:58 31° NE 01:25:46 10° E
Cosmos 2082 Rocket 3.8 01:19:04 10° NNE 01:22:55 18° NE 01:26:44 10° E
MetOp-A 4.2 01:17:46 10° SSE 01:23:05 77° ENE 01:28:27 10° N
Intercosmos 25 Rocket 3.5 01:20:42 10° N 01:24:52 69° W 01:28:03 10° S
Cosmos 1745 Rocket 4.0 01:19:47 10° N 01:25:58 89° E 01:32:05 10° S
GPS 2-04 Rocket1 2.8 01:22:03 10° W 01:26:12 73° S 01:30:18 10° ESE
Cosmos 1709 Rocket 4.2 01:21:33 10° N 01:27:27 50° E 01:33:23 10° SSE
Tianhe-1 1.8 01:24:30 10° W 01:27:33 55° NNW 01:30:39 10° ENE
Cosmos 1777 Rocket 4.0 01:22:46 10° SSW 01:27:57 88° ESE 01:33:11 10° NNE
Cosmos 1805 Rocket 4.3 01:26:45 10° NNW 01:31:02 55° W 01:35:18 10° S
Cosmos 1633 Rocket 3.3 01:28:15 10° N 01:32:34 49° E 01:36:50 10° SSE
Ariane Rocket 3.5 01:28:09 10° SE 01:32:52 41° ENE 01:37:37 10° N
Cosmos 1602 3.8 01:29:08 10° N 01:32:59 61° E 01:36:50 10° SSE
CREW DRAGON DEMO-1 DEB 3.7 01:30:44 10° NNW 01:33:06 30° NE 01:35:05 13° E
Cosmos 1328 Rocket 3.6 01:30:18 10° S 01:34:39 62° E 01:39:00 10° NNE
CZ-4C R/B 3.2 01:30:22 10° NNW 01:37:56 69° ENE 01:45:54 12° SE
ATLAS 5 CENTAUR R/B 3.4 01:34:40 10° NW 01:40:28 48° WSW 01:47:05 10° S
Resurs 01 Rocket 2.9 01:37:35 13° ESE 01:40:34 24° ENE 01:44:08 10° NNE
Cosmos 1812 3.2 01:37:51 10° SSE 01:41:27 39° E 01:45:04 10° NNE
USA 306 3.6 01:37:46 10° NNW 01:41:50 42° NE 01:45:07 15° ESE
Cosmos 2278 Rocket 2.4 01:36:45 10° SSW 01:42:24 78° WNW 01:48:05 10° NNE
COSMOS 2406 3.4 01:43:25 10° NNW 01:49:01 59° ENE 01:53:38 15° SE
CZ-2C R/B 1.9 01:45:27 10° SW 01:49:09 33° SSE 01:51:29 18° ESE
Cosmos 1470 Rocket 4.0 01:46:56 10° N 01:51:15 45° E 01:54:27 17° SSE
NOSS 3-4 (A) 4.4 01:49:11 10° NNW 01:56:02 46° NE 02:01:46 17° ESE
IGS 5A 4.5 01:53:55 19° ESE 01:56:03 29° ENE 01:59:39 10° NNE
NOSS 3-4 (C) 4.4 01:49:18 10° NNW 01:56:08 46° NE 02:01:52 17° ESE
Akebono 4.3 01:54:13 10° N 01:56:18 49° ENE 01:57:12 30° SE
SJ 16-02 1.5 01:55:29 10° SSW 01:59:54 79° WNW 02:04:21 10° NNE
Cosmos 2315 Rocket 4.3 01:56:24 10° SSW 02:02:44 73° W 02:09:08 10° N
Cosmos 1151 Rocket 4.3 02:00:37 10° SSW 02:04:45 42° W 02:08:56 10° N
Cosmos 1933 Rocket 4.1 02:00:44 10° N 02:04:49 39° E 02:06:52 24° SE
OBJECT-B 2.3 02:03:31 10° SSW 02:06:29 34° W 02:09:30 10° NNW
Cosmos 1500 3.0 02:02:50 10° N 02:06:34 80° E 02:09:01 20° S
Cosmos 1666 Rocket 4.4 02:02:28 10° NNW 02:06:40 49° W 02:10:50 10° SSW
USA 186 4.0 02:05:43 10° SW 02:07:06 14° W 02:08:29 10° WNW
Meteor 2-6 Rocket 4.1 02:02:03 10° S 02:07:26 74° E 02:12:59 10° NNE
ATLAS 2AS CENTAUR R/B 3.8 02:02:38 10° NNW 02:09:01 32° NE 02:13:25 17° E
USA 307 2.9 02:06:57 10° NW 02:11:13 72° NE 02:13:20 29° ESE
Cosmos 1833 Rocket 2.7 02:08:03 10° NNW 02:13:43 84° WSW 02:17:45 20° SSE
Resurs 1-3 3.8 02:13:22 16° S 02:16:49 72° W 02:21:12 10° NNW
DNEPR-1 R/B 4.3 02:10:33 10° SSW 02:16:57 58° ESE 02:22:13 10° NE
ISS -1.0 02:15:25 10° W 02:18:03 21° NNW 02:20:41 10° NNE
CZ-2C R/B 3.9 02:14:46 10° NNE 02:19:14 52° E 02:21:51 24° SSE
Landsat 7 4.0 02:20:33 29° SE 02:22:46 56° ENE 02:27:25 10° N
USA 308 2.8 02:20:51 10° NW 02:25:09 86° SW 02:26:44 38° SE
ARIANE 5 R/B 3.9 02:25:57 22° E 02:26:38 23° ENE 02:30:05 10° NNE
Meteor 1-27 Rocket 4.0 02:24:49 24° SSE 02:28:06 51° E 02:33:48 10° NNE
SPOT 5 4.5 02:28:25 20° E 02:29:45 22° ENE 02:33:42 10° NNE
ERS-1 Rocket 4.4 02:29:14 20° E 02:30:20 21° ENE 02:34:03 10° NNE
BREEZE-M DEB (TANK) 2.7 02:24:16 10° NW 02:30:30 67° SW 02:31:10 48° SSE
Milstar 3 4.3 02:13:21 10° WSW 02:31:48 61° S 02:38:40 23° ESE
MetOp-B 4.1 02:35:51 34° SSE 02:38:13 70° ENE 02:43:34 10° N
Cosmos 1937 Rocket 3.6 02:38:20 37° SSE 02:39:50 49° ESE 02:44:48 10° NNE
Spot 2 Rocket 4.1 02:38:38 34° ESE 02:39:54 40° ENE 02:44:35 10° N
SPOT 1/Viking Rocket 3.7 02:39:01 38° SE 02:40:49 58° ENE 02:45:54 10° N
Cosmos 1340 Rocket 4.3 02:38:06 10° NNE 02:41:02 23° ENE 02:41:02 23° ENE
USA 267 3.9 02:39:53 23° S 02:43:42 45° SW 02:49:55 10° WNW
OAO 3 Rocket 2.9 02:39:15 10° W 02:43:54 78° S 02:45:12 47° ESE
Cosmos 1461 3.0 02:40:08 10° SSW 02:44:50 82° ESE 02:49:32 10° NNE
Meteor 1-5 Rocket 4.5 02:41:44 10° NNW 02:46:57 61° W 02:50:04 24° SSW
Cosmos 2297 3.6 02:42:57 10° SSW 02:48:40 89° ESE 02:54:22 10° NNE
Delta 2 Rocket 3.7 02:46:15 10° W 02:51:30 68° SSW 02:52:22 55° SE
Cosmos 1544 4.4 02:50:01 10° NNE 02:52:23 27° NE 02:52:23 27° NE
Cosmos 1271 Rocket 4.2 02:50:36 12° SW 02:53:53 36° WNW 02:57:37 10° N
Cosmos 1867 4.2 02:58:08 37° E 02:58:08 37° E 03:02:21 10° NE
SPOT 3 Rocket 4.0 02:55:15 30° SSW 02:57:39 58° W 03:02:43 10° NNW
Cosmos 858 Rocket 4.3 02:56:42 44° S 02:58:20 73° ESE 03:03:33 10° NNE
USA 305 3.9 02:58:02 10° WNW 03:01:53 34° SW 03:02:12 34° SW
Cosmos 1680 Rocket 3.5 02:57:05 10° NNW 03:02:24 69° ENE 03:03:22 56° SE
Cosmos 1943 Rocket 2.1 03:00:05 25° SSW 03:03:29 88° ESE 03:09:07 10° NNE
Tianhe-1 2.8 03:01:39 10° WNW 03:04:29 29° N 03:04:37 29° N
GPS 2-04 Rocket1 4.2 03:01:45 10° W 03:04:25 27° SW 03:04:25 27° SW
Cosmos 44 3.5 03:01:21 10° NNW 03:06:43 66° ENE 03:07:29 58° ESE
Meteor 1-11 Rocket 3.8 03:00:51 10° N 03:06:48 82° W 03:08:45 44° S
Cosmos 2082 Rocket 2.5 03:01:52 10° NNW 03:07:22 59° WSW 03:09:12 40° SSW
Cosmos 1536 2.9 03:03:35 10° N 03:07:15 69° NNE 03:07:15 69° NNE
Cosmos 1666 4.3 03:07:47 10° NNW 03:11:01 28° W 03:11:49 25° WSW
Iridium 4 Rocket 4.4 03:07:45 23° SSW 03:11:22 55° W 03:17:10 10° N
Cosmos 2228 Rocket 4.1 03:10:20 27° SW 03:12:19 44° W 03:16:36 10° N
Cosmos 1869 Rocket 3.5 03:10:45 10° N 03:15:05 76° W 03:15:12 75° WSW
Nadezhda 1 Rocket 4.2 03:13:09 27° SSW 03:16:46 68° W 03:22:58 10° N
Resurs 01 Rocket 3.4 03:15:09 20° SW 03:16:55 26° W 03:20:39 10° NW
Cosmos 372 Rocket 4.0 03:18:03 59° E 03:18:03 59° E 03:22:38 10° NNE
Cosmos 2154 Rocket 4.0 03:14:32 10° N 03:20:50 81° W 03:22:40 49° S
Cosmos 962 Rocket 4.5 03:17:22 10° N 03:23:26 60° E 03:24:07 56° ESE
Cosmos 1707 Rocket 3.7 03:26:41 72° NNW 03:26:41 72° NNW 03:30:45 10° N
CARTOSAT-1 3.7 03:27:25 69° WNW 03:27:25 69° WNW 03:31:25 10° NNW
CZ-2C R/B 3.3 03:24:39 10° WSW 03:25:48 18° WSW 03:25:48 18° WSW
Cosmos 2369 Rocket 2.0 03:29:36 75° ESE 03:29:43 75° ESE 03:35:22 10° NNE
Terra 2.2 03:30:58 53° NE 03:30:58 53° NE 03:35:08 10° N
Cosmos 2084 Rocket 3.9 03:31:05 10° NNW 03:34:42 60° NNW 03:34:42 60° NNW
Cosmos 1607 3.9 03:34:45 61° S 03:35:55 78° ESE 03:42:25 10° NNE
Cosmos 1743 4.1 03:42:50 10° NNW 03:45:19 37° NNW 03:45:19 37° NNW
Meteor 1-18 Rocket 4.2 03:49:56 73° NE 03:49:56 73° NE 03:55:06 10° NNE
Cosmos 1818 3.6 03:45:03 10° NNW 03:50:13 78° WNW 03:50:13 78° WNW
Meteor 2-9 Rocket 4.4 03:47:17 10° N 03:52:24 60° NE 03:52:24 60° NE
Cosmos 2181 Rocket 3.8 03:57:50 85° SSW 03:58:01 88° W 04:04:10 10° N
Cosmos 1733 Rocket 4.1 03:54:14 10° N 03:57:10 42° NNW 03:57:10 42° NNW
Cosmos 2366 rocket 4.1 03:52:37 10° N 03:58:37 63° ENE 03:58:37 63° ENE
Cosmos 489 Rocket 4.3 03:53:24 10° NNW 03:59:41 80° ENE 03:59:44 80° E
ATLAS 2AS CENTAUR R/B 3.0 03:53:23 10° NW 04:00:12 51° WSW 04:00:51 49° SW
ARIANE 5 R/B 4.4 04:03:29 25° W 04:03:29 25° W 04:06:34 10° NW
SPOT 5 3.9 04:07:38 42° W 04:07:38 42° W 04:12:28 10° NNW
ERS-1 Rocket 4.0 04:09:13 38° W 04:09:13 38° W 04:13:31 10° NNW
Cosmos 2263 4.4 04:10:40 70° WNW 04:10:40 70° WNW 04:16:24 10° NNE
Cosmos 1238 Rocket 4.2 04:12:08 10° NNW 04:16:21 47° NW 04:16:21 47° NW
Meteor 2-4 Rocket 4.1 04:27:54 62° NNW 04:27:54 62° NNW 04:32:37 10° N
CZ-3C R/B 4.5 03:58:14 10° W 04:27:07 26° SW 04:28:06 25° SW
Cosmos 2218 Rocket 4.1 04:24:02 10° NNW 04:30:06 69° WNW 04:30:06 69° WNW
ATLAS CENTAUR R/B 4.0 04:35:46 16° NNW 04:35:46 16° NNW 04:37:04 10° N
Lacrosse 5 3.4 04:38:39 30° NNE 04:38:39 30° NNE 04:41:14 10° NE
Nadezhda 3 Rocket 4.4 04:39:38 56° NE 04:39:38 56° NE 04:44:39 10° NNE
Terra 4.4 05:09:51 12° WNW 05:09:51 12° WNW 05:10:37 10° WNW
Cosmos 1934 Rocket 4.4 05:25:30 10° N 05:30:11 55° N 05:30:11 55° N
Centaur D AC-29 4.2 05:12:15 10° W 05:29:09 33° WSW 05:29:09 33° WSW
Cosmos 1727 Rocket 4.4 06:09:22 62° NNE 06:09:22 62° NNE 06:14:37 10° N
Cosmos 2227 Rocket 3.5 06:04:37 10° N 06:09:38 32° ENE 06:09:39 32° ENE
Cosmos 2297 Rocket 3.2 06:06:16 10° N 06:10:57 41° NE 06:10:57 41° NE
COSMOS 2455 3.4 06:12:54 10° NNW 06:17:36 54° N 06:17:36 54° N
Lacrosse 5 4.4 06:17:46 12° WNW 06:19:57 15° NNW 06:22:54 10° N
SeaSat 1 3.6 06:24:44 10° NNE 06:27:53 39° N 06:27:53 39° N
Cosmos 1459 Rocket 4.4 06:29:05 10° N 06:34:44 56° ENE 06:34:44 56° ENE
SL-16 R/B 4.1 06:35:11 23° E 06:37:25 29° ENE 06:42:40 10° N
Lacrosse 4 Rocket 3.5 06:43:35 28° NNE 06:43:35 28° NNE 06:45:41 10° NNE
Resurs 1-4 Rocket 3.4 06:37:06 10° NNE 06:40:51 32° ENE 06:40:51 32° ENE
CZ-2D R/B 3.2 06:44:21 10° NNE 06:48:27 37° ENE 06:48:27 37° ENE
Cosmos 2016 Rocket 4.4 06:45:16 10° N 06:51:17 51° E 06:51:30 51° E
Cosmos 2173 Rocket 4.0 06:50:20 10° N 06:56:02 76° N 06:56:02 76° N
USA 281 3.9 06:58:55 32° ESE 07:01:31 49° ENE 07:07:48 10° N
Cosmos 2219 3.8 06:57:10 10° NNW 07:01:23 51° NW 07:01:23 51° NW
CENTAUR R/B 4.3 07:15:02 15° ESE 07:15:51 16° ESE 07:19:22 10° ENE
USA 215 3.8 07:10:26 10° ESE 07:16:47 57° NE 07:23:10 10° NW
Cosmos 2285 Rocket 4.0 07:17:31 69° ESE 07:17:46 69° ESE 07:24:10 10° NNE
Cosmos 2061 Rocket 3.9 07:13:09 10° N 07:19:33 83° E 07:19:55 79° SE
Timation 2 Rocket 4.3 07:14:04 10° NNW 07:18:35 49° WNW 07:18:35 49° WNW
Cosmos 1697 Rocket 3.3 07:20:37 45° NW 07:20:37 45° NW 07:25:31 10° N
Cosmos 2123 Rocket 4.0 07:31:50 63° WNW 07:31:50 63° WNW 07:37:56 10° N
IDEFIX/ARIANE 42P 4.4 07:29:17 10° NE 07:33:23 23° E 07:35:00 20° ESE
Cosmos 1980 Rocket 2.2 07:34:41 70° NW 07:34:41 70° NW 07:40:11 10° NNE
SL-19 R/B 4.1 07:30:54 10° NNE 07:36:17 77° E 07:36:17 77° E
ARGOS Delta rocket 4.1 07:32:12 10° NNE 07:36:50 67° E 07:36:50 67° E
Cosmos 407 Rocket 3.6 07:32:26 10° NNW 07:37:16 72° NNW 07:37:16 72° NNW
Cosmos 1802 Rocket 4.3 07:34:08 10° NNW 07:39:36 50° WNW 07:39:36 50° WNW
Meteor 1-16 Rocket 4.5 07:35:03 10° NNW 07:40:15 56° WNW 07:40:15 56° WNW
Cosmos 292 Rocket 4.3 07:45:25 49° ESE 07:45:28 49° ESE 07:50:09 10° NNE
Cosmos 1953 4.5 07:42:16 10° NNW 07:43:35 19° NW 07:43:35 19° NW
APEX 4.4 07:41:45 10° NNW 07:45:45 52° WNW 07:45:45 52° WNW
AQUA 3.9 07:42:20 10° NNE 07:46:43 75° N 07:46:43 75° N
Cosmos 1624 Rocket 4.5 07:50:18 49° WNW 07:50:18 49° WNW 07:55:18 10° N
Cosmos 1536 Rocket 4.1 07:52:10 53° NNW 07:52:10 53° NNW 07:55:43 10° N
UNK 4.1 07:52:55 53° NW 07:52:55 53° NW 07:56:32 10° NNW
Cosmos 2227 Rocket 3.6 07:48:40 10° NW 07:51:26 24° WNW 07:51:26 24° WNW
Cosmos 1300 3.7 07:50:34 10° N 07:53:29 46° NNE 07:53:29 46° NNE
Cosmos 2297 Rocket 4.1 07:51:05 10° NW 07:52:44 16° WNW 07:52:44 16° WNW
Cosmos 220 Rocket 4.1 07:59:58 74° NNE 07:59:58 74° NNE 08:04:00 10° NNE
ADEOS II 1.9 07:54:23 10° NNE 07:59:40 84° ESE 08:00:18 69° S
Cosmos 1447 Rocket 4.4 07:59:33 58° SSW 08:00:56 81° W 08:07:18 10° N
Meteor 2-5 Rocket 3.6 08:00:38 68° SW 08:01:20 80° W 08:06:58 10° N
Cosmos 2278 4.2 08:04:23 43° W 08:04:59 45° WNW 08:10:27 10° N
Helios 1B rocket 3.9 08:03:00 10° N 08:05:42 27° NW 08:05:42 27° NW
OAO 1 Rocket 4.3 08:06:51 72° SSW 08:07:05 74° S 08:12:24 10° E
Cosmos 1340 3.5 08:08:10 45° NNW 08:08:10 45° NNW 08:10:56 10° N
Cosmos 1954 Rocket 4.0 08:02:54 10° NNW 08:08:13 81° ENE 08:10:04 42° SSE
Cosmos 1452 Rocket 3.5 08:09:02 60° S 08:09:58 79° ESE 08:15:16 10° NNE
Cosmos 2082 4.1 08:06:55 10° NW 08:11:48 44° W 08:11:48 44° W
SEDSat Delta rocket 4.2 08:12:52 41° SSE 08:12:52 41° SSE 08:17:46 10° E
Atlas Centaur 2 3.2 08:11:18 42° SSW 08:13:04 48° S 08:20:08 10° E
SL-16 R/B 2.3 08:13:55 45° S 08:15:33 68° ESE 08:21:12 10° NNE
GP-B 3.2 08:15:06 10° N 08:19:21 58° WNW 08:19:21 58° WNW
Lacrosse 4 Rocket 4.0 08:19:52 10° WNW 08:20:27 10° NW 08:21:18 10° NW
Cosmos 1140 Rocket 4.3 08:15:57 10° NW 08:19:47 34° WNW 08:19:47 34° WNW
SL-16 R/B 2.9 08:20:16 41° WSW 08:20:46 41° W 08:26:39 10° NNW
Resurs 1-4 Rocket 3.3 08:17:12 10° NNW 08:21:29 26° WNW 08:21:56 26° WNW
NOSS 3-2 (C) 3.9 08:19:38 33° SSE 08:21:33 47° ESE 08:27:17 10° NE
Meteor 1-28 Rocket 3.1 08:24:27 72° ESE 08:24:41 76° ENE 08:28:24 10° N
Cosmos 1464 Rocket 4.4 08:22:47 10° N 08:28:56 61° E 08:35:06 10° SSE
CZ-2D R/B 3.5 08:24:58 10° NNW 08:29:06 23° WNW 08:29:47 23° WNW
Cosmos 2233 Rocket 4.3 08:23:25 10° NNW 08:29:13 44° W 08:30:28 39° WSW
ADEOS Rocket 3.5 08:27:21 16° S 08:33:41 82° WSW 08:41:32 10° NNW
Cosmos 1346 Rocket 2.9 08:34:22 51° SSE 08:35:11 70° E 08:39:06 10° NNE
Cosmos 2322 Rocket 2.2 08:37:26 35° SSW 08:39:55 84° ESE 08:45:38 10° NNE
NOSS 3-2 (A) 3.3 08:39:21 39° WSW 08:41:23 65° NW 08:47:31 10° NNE
Cosmos 2263 Rocket 2.1 08:35:57 10° NNW 08:41:38 82° WSW 08:47:18 10° SSE
USA 281 4.0 08:45:46 28° WSW 08:46:08 28° WSW 08:51:37 10° NW
IRS-1D 4.2 08:41:54 10° N 08:46:56 42° WNW 08:48:39 32° WSW
Cosmos 1741 Rocket 4.3 08:43:58 10° NNW 08:49:10 66° ENE 08:54:21 10° SSE
OAO 2 Rocket 3.3 08:46:49 30° W 08:49:25 68° S 08:54:41 10° ESE
CZ-4B R/B 3.5 08:48:30 10° NNE 08:53:37 83° ESE 08:56:57 23° S
BREEZE-M DEB (TANK) 4.1 08:54:15 16° NW 08:54:43 17° NNW 08:56:35 10° NNE
OAO 3 Copernicus 4.2 08:53:59 31° WSW 08:56:23 75° S 09:01:27 10° E
Cosmos 1892 Rocket 3.5 08:55:15 36° SSW 08:56:52 65° W 09:01:10 10° N
Cosmos 2219 Rocket 4.3 08:53:24 10° SSE 08:57:42 23° E 09:02:01 10° NE
USA 238 DEB 3.6 08:54:15 29° SW 08:57:48 70° WNW 09:04:34 10° NNE
USA 238 3.6 08:54:20 29° SW 08:57:54 70° WNW 09:04:40 10° NNE
Cosmos 2360 Rocket 2.4 08:55:55 21° S 08:59:47 69° ESE 09:05:25 10° NNE
USA 215 3.7 08:53:58 10° SSE 08:59:53 36° SW 09:05:49 10° WNW
SL-08 R/B 3.6 08:57:26 10° SSE 09:02:04 65° ENE 09:06:39 10° N
Cosmos 2228 3.6 08:59:38 10° NNW 09:03:38 38° W 09:04:50 31° SW
CZ-2C R/B 4.5 09:01:21 10° NNE 09:05:00 33° E 09:08:39 10° SSE
CENTAUR R/B 2.5 09:02:13 27° SW 09:05:26 66° NW 09:12:07 10° NNE
ARIANE 5 R/B 2.4 09:00:49 10° N 09:05:55 79° WNW 09:09:22 21° SSW
USA 32 4.1 09:01:55 10° N 09:07:12 84° E 09:12:26 10° S
CZ-2C R/B 3.3 09:07:01 10° NNE 09:12:04 51° E 09:17:04 10° S
IDEFIX/ARIANE 42P 3.2 09:08:11 10° N 09:13:02 39° WNW 09:15:49 22° SW
Cosmos 1441 Rocket 4.3 09:10:35 10° SSE 09:14:20 44° E 09:18:07 10° NNE
SL-8 R/B 4.0 09:12:00 24° SSW 09:14:44 59° SE 09:19:25 10° ENE
Cosmos 1726 Rocket 4.0 09:13:29 10° NNW 09:17:40 43° W 09:20:31 19° SSW
Cosmos 1606 Rocket 4.4 09:15:26 10° NNW 09:19:20 31° W 09:21:19 22° SW
Cosmos 2237 4.3 09:18:19 20° SW 09:22:17 62° WNW 09:27:57 10° NNE
Cosmos 2058 Rocket 3.1 09:21:16 10° NNW 09:25:44 62° W 09:30:10 10° S
MSX 4.3 09:20:43 10° N 09:26:11 45° WNW 09:30:29 16° SW
Okean 1-7 Rocket 3.9 09:24:52 17° SSW 09:28:11 51° W 09:32:39 10° N
FENGYUN 3A 4.5 09:28:24 10° NNE 09:33:38 51° E 09:38:52 10° S
Meteor 1-21 Rocket 4.4 09:28:57 13° SSW 09:33:50 55° W 09:39:16 10° N
Cosmos 1302 Rocket 4.0 09:30:58 11° SSW 09:36:01 80° WNW 09:41:21 10° NNE
CZ-2D R/B 4.0 09:33:00 10° N 09:37:15 46° WNW 09:41:01 13° SW
PAYLOAD A 3.8 09:33:46 10° N 09:38:28 80° WNW 09:43:09 10° SSW
ADEOS II 4.2 09:37:10 10° NW 09:38:35 11° WNW 09:39:59 10° WNW
Cosmos 1455 3.2 09:39:35 10° NNW 09:42:56 28° W 09:46:10 10° SSW
ATLAS 3B R/B 4.0 09:38:55 10° S 09:44:44 35° ESE 09:50:38 10° NE
Cosmos 1602 Rocket 3.5 09:40:55 10° S 09:45:15 84° W 09:49:40 10° N
Cosmos 1758 Rocket 4.3 09:42:59 10° S 09:47:19 56° E 09:51:43 10° NNE
Cosmos 2322 3.8 09:42:00 10° SSW 09:47:40 80° ESE 09:53:20 10° NNE
Cosmos 1626 Rocket 3.9 09:47:25 10° SSW 09:51:39 48° W 09:55:57 10° N
OAO 1 Rocket 4.5 09:47:25 10° W 09:52:44 73° S 09:58:03 10° ESE
Aureole 3 3.4 09:52:45 10° N 09:56:06 58° E 09:59:03 10° SSE
SEDSat Delta rocket 3.8 09:53:13 10° WSW 09:58:45 51° S 10:03:34 10° ESE
SL-16 R/B 4.0 09:56:38 10° W 10:00:10 17° NW 10:03:43 10° NNW
Cosmos 1892 4.4 09:58:03 10° SSE 10:01:29 35° E 10:04:57 10° NNE
Atlas Centaur 2 3.0 09:54:40 10° WSW 10:02:24 54° S 10:08:46 10° ESE
ALOS 2.3 09:59:37 10° N 10:04:18 84° WNW 10:08:58 10° SSW
Cosmos 389 Rocket 4.3 10:02:54 10° NW 10:04:50 14° W 10:06:45 10° SW
Cosmos 2333 Rocket 2.3 10:01:10 10° SSW 10:06:54 74° WNW 10:12:42 10° NNE
PSLV R/B 3.5 10:04:50 10° N 10:09:01 68° WNW 10:13:14 10° SSW
Cosmos 2237 Rocket 4.3 10:05:54 10° SSE 10:10:33 27° ESE 10:15:14 10° NE
